Wind_Speed
103 106 109 110 111 112 112 113 113 113 112 110 106 103 99 96 93 92 93 93 92 87 81 75 71 70 69 69 70 70 70 71 71 72 73 74 76 77 78 78 78 79 79 79 79 79 80 81 83 84 84 84 83 83 83 82 82 82 81 81 81 81 80 80 80 80 80 79 79 78 77 76 75 74 74 74 74 74 74 73 73 73 73 74 74 74
103 106 109 111 112 113 114 114 115 115 114 111 107 103 100 97 94 93 94 95 94 90 83 76 72 70 70 70 70 71 71 71 72 72 73 75 76 77 78 78 78 78 79 79 80 81 82 83 84 85 85 85 85 84 84 84 83 83 83 82 81 81 80 80 80 79 79 79 79 79 78 77 76 76 75 75 75 75 74 73 73 73 74 75 75 76
103 106 109 111 113 114 115 115 116 116 115 112 108 104 101 98 95 95 96 97 97 93 86 79 74 72 71 71 71 71 72 73 73 74 75 76 76 77 77 78 78 78 79 80 81 82 83 84 85 86 86 86 86 86 86 85 85 85 84 83 82 81 80 80 80 79 79 80 80 79 79 78 78 77 77 77 76 76 75 74 74 74 75 76 77 77
104 107 110 112 114 115 116 117 117 117 116 113 109 105 102 99 97 96 98 99 99 96 89 82 77 74 73 72 72 72 73 74 75 76 77 77 77 77 78 78 79 79 81 82 83 83 84 85 85 86 87 87 87 87 87 87 87 86 85 84 83 81 80 80 80 80 80 80 80 80 80 79 79 79 78 78 78 77 76 75 75 75 76 77 78 78
104 107 110 113 115 116 117 117 118 118 117 115 110 106 103 100 98 98 99 101 101 98 93 87 82 78 76 75 74 74 75 76 77 78 79 79 79 79 79 79 80 81 82 83 84 85 85 85 86 87 87 88 88 88 88 88 88 87 86 85 83 82 81 81 80 80 80 81 81 81 80 80 80 80 80 80 80 79 78 77 77 77 78 79 80 80
104 108 111 113 115 117 118 118 119 119 118 116 112 108 104 102 101 100 101 102 102 100 96 90 86 82 80 78 77 76 77 78 79 80 81 81 81 81 81 81 82 83 85 85 86 86 86 86 87 87 88 88 88 89 89 89 88 88 87 85 84 83 82 82 81 81 81 82 81 81 81 81 81 81 81 82 82 81 80 80 79 80 81 81 81 81
105 108 111 113 116 117 118 119 119 119 119 117 113 110 106 104 102 102 103 104 104 102 99 94 89 86 83 81 80 79 79 80 81 81 82 82 82 82 82 83 84 85 87 88 88 88 87 87 88 88 88 88 88 89 89 89 88 88 87 86 85 84 83 82 82 82 82 82 82 82 82 82 82 82 83 83 83 83 82 81 82 82 83 83 82 81
105 108 111 114 116 118 119 120 120 120 120 118 115 111 107 105 104 104 105 105 105 104 101 97 92 89 86 84 83 82 82 82 82 82 82 83 83 83 83 84 85 87 89 90 90 89 89 88 89 89 89 88 88 88 88 88 88 87 87 86 85 84 84 83 83 82 83 83 83 83 83 83 83 83 84 84 84 84 83 83 84 85 85 84 83 82
106 109 112 115 117 119 120 121 121 121 121 119 116 113 109 107 105 104 105 105 106 106 104 100 96 92 89 87 85 85 84 84 83 83 83 83 83 83 84 85 87 89 91 92 92 91 90 90 89 89 89 88 88 88 87 87 87 86 86 85 85 84 84 83 83 83 84 84 84 84 84 84 84 84 85 85 84 84 84 84 85 86 85 84 83 82
106 110 113 115 118 120 121 122 123 123 122 120 118 115 112 109 106 105 105 105 106 107 106 103 100 96 92 90 88 87 86 85 85 85 84 84 84 84 85 85 87 90 92 93 93 93 92 91 90 90 89 89 88 88 87 87 86 86 85 85 85 85 84 84 84 84 85 85 85 84 84 84 84 85 85 85 84 84 84 85 86 86 85 84 83 83
107 110 113 116 118 120 122 124 124 124 123 121 119 116 113 110 108 106 105 105 106 107 107 106 103 99 95 92 90 89 88 87 86 86 86 86 86 86 87 88 89 92 93 94 94 94 93 93 92 91 90 90 89 88 88 87 87 86 86 86 86 85 85 85 85 85 85 85 85 84 83 83 83 84 84 84 84 84 85 86 86 86 86 85 84 83
107 110 113 116 119 121 123 125 125 125 124 122 120 117 114 112 110 108 107 106 106 107 107 107 105 102 98 95 93 91 89 89 88 88 88 88 88 89 90 91 93 94 95 95 94 94 94 94 94 93 92 91 90 89 89 89 88 88 88 87 87 87 86 86 86 86 86 85 84 84 83 82 82 83 83 83 84 84 85 86 87 87 86 85 85 84
107 110 114 117 119 122 124 125 126 127 125 123 121 118 116 114 112 110 109 108 107 107 107 107 106 104 101 98 96 93 92 91 90 90 90 90 91 92 93 94 95 96 95 95 95 95 95 96 96 95 94 93 92 91 90 90 90 89 89 89 89 88 88 87 87 87 86 86 85 84 83 83 82 82 83 83 83 84 85 86 87 87 86 86 85 85
107 110 113 117 120 122 125 126 128 129 128 126 124 121 119 116 114 112 110 109 108 108 107 107 107 105 103 101 99 96 94 93 92 92 92 92 93 95 96 97 97 97 97 96 95 96 97 97 97 96 95 94 93 93 92 92 91 91 91 91 90 90 89 89 88 88 88 87 87 86 85 84 84 84 84 84 84 85 86 86 86 86 86 85 85 84
107 110 113 117 120 123 125 127 129 131 131 129 127 124 121 117 115 113 112 110 109 108 107 107 107 107 105 104 102 100 97 96 95 94 94 94 95 97 98 99 99 99 98 97 97 98 98 98 97 96 96 95 94 94 94 93 93 93 93 92 92 92 91 90 90 89 89 89 88 88 87 86 86 86 86 86 86 86 86 86 86 85 85 84 84 84
106 110 113 116 120 123 125 128 130 132 133 132 130 126 122 119 117 116 114 113 111 109 107 107 107 107 107 106 105 103 101 99 97 96 96 96 97 98 99 100 101 101 100 100 100 100 100 99 98 97 95 94 94 93 93 94 94 95 95 95 94 94 93 93 92 91 90 90 89 89 89 89 89 89 88 88 88 88 87 86 86 85 84 84 84 84
103 109 113 116 119 122 125 128 130 133 135 135 133 130 127 123 121 119 117 116 113 110 108 107 107 107 108 108 107 106 104 102 100 99 98 98 98 99 100 101 102 102 102 102 102 102 101 100 99 97 96 95 93 93 92 92 93 94 94 95 96 96 96 95 95 94 93 92 91 91 91 91 91 91 91 91 90 90 88 87 86 86 85 85 84 85
98 106 111 115 118 121 124 127 130 133 135 137 137 135 132 128 125 122 120 118 115 113 110 109 108 108 109 109 109 108 107 105 103 102 100 99 99 100 101 102 102 103 104 103 103 103 103 101 100 99 97 96 94 93 91 91 90 91 92 94 95 96 97 97 97 96 96 95 94 94 93 93 93 93 93 93 92 91 90 89 88 87 86 86 85 85
92 101 109 114 118 121 123 126 129 132 135 137 139 138 136 133 129 126 123 121 119 116 113 111 109 109 109 110 111 110 109 108 106 105 103 101 101 101 101 102 103 104 104 105 105 105 104 103 102 100 99 97 96 94 92 91 90 89 90 91 92 94 95 96 97 97 97 97 97 96 95 95 95 95 95 94 94 92 91 90 89 88 88 87 87 86
86 95 104 111 116 120 123 125 128 131 134 137 139 140 139 137 134 130 127 125 123 120 117 114 111 110 110 111 112 112 111 110 109 107 106 104 103 102 102 102 102 103 105 105 106 106 106 104 103 102 101 99 98 97 95 93 91 90 89 89 90 91 92 93 94 96 97 98 98 98 97 97 97 97 96 96 95 93 92 91 90 90 89 89 88 88
82 89 98 106 113 118 122 125 127 130 133 135 138 140 141 140 138 135 132 129 127 124 121 117 114 112 111 112 112 113 112 111 111 110 109 107 105 104 103 102 102 103 104 105 107 107 107 106 105 104 103 102 101 99 98 96 94 93 91 91 90 90 90 90 92 93 95 96 97 98 98 98 98 98 98 97 96 95 93 92 92 91 91 90 90 89
80 85 93 101 108 115 120 124 126 129 131 133 136 139 141 142 142 140 137 134 131 128 125 122 119 116 114 113 113 114 114 113 113 112 111 109 107 106 104 103 103 103 104 105 106 107 107 107 107 106 105 104 103 102 101 99 98 96 95 93 92 91 90 90 90 91 92 94 95 97 98 98 98 99 99 98 97 96 95 94 93 93 92 92 91 91
80 83 88 95 102 110 116 121 125 128 130 132 135 137 140 142 143 143 142 139 136 133 131 128 125 121 118 115 115 115 115 114 115 114 113 111 109 108 107 105 103 103 104 105 106 107 107 107 107 107 107 106 105 104 103 102 101 100 98 96 95 94 93 92 91 91 91 92 93 95 96 96 97 97 97 97 97 96 95 95 94 94 93 93 93 92
82 83 86 90 97 104 111 118 123 126 129 131 134 136 138 140 142 144 144 143 141 139 136 133 129 125 121 119 117 116 116 116 116 115 114 113 112 111 109 106 104 104 105 106 106 106 106 106 107 107 107 107 106 106 105 104 104 102 101 100 98 97 95 94 93 93 92 92 93 93 94 94 95 95 95 95 94 94 94 94 94 93 93 93 93 93
83 84 86 88 93 99 106 112 119 124 128 130 133 135 137 139 141 142 144 145 144 143 140 136 133 129 126 123 121 119 119 118 117 116 116 115 114 113 110 108 106 105 106 106 106 106 105 106 106 107 107 107 107 107 107 106 105 104 103 102 101 100 98 97 96 95 94 94 94 94 93 93 93 93 93 92 92 91 91 91 91 92 92 92 92 92
85 86 87 88 91 95 101 107 113 120 125 129 132 134 135 137 139 141 142 145 146 146 144 141 138 135 133 129 126 124 122 121 119 118 117 117 115 114 112 110 108 107 107 107 106 106 105 106 106 106 106 107 107 108 107 107 106 105 105 104 103 102 101 100 99 98 97 96 96 95 94 94 93 92 92 91 90 90 89 89 89 89 90 91 91 91
87 88 89 90 91 93 97 102 108 114 121 126 130 133 134 136 137 139 141 143 145 147 147 145 143 141 138 135 132 129 127 124 122 120 119 118 116 115 114 112 110 109 108 108 107 106 106 106 106 106 106 107 107 108 108 108 107 106 106 106 105 105 104 103 102 101 100 99 98 97 96 95 94 93 91 91 90 89 89 88 88 88 89 89 90 90
89 90 91 92 93 94 96 99 104 109 115 121 127 131 133 135 136 138 140 142 144 146 147 148 147 146 143 140 138 135 132 129 126 124 122 120 118 116 115 114 112 111 110 109 108 108 107 107 107 107 107 107 107 107 108 108 107 107 107 107 106 106 106 105 104 104 103 102 101 99 98 97 95 94 92 91 90 90 89 89 89 89 89 89 89 89
91 92 93 94 95 95 96 98 101 105 110 116 122 127 131 134 136 138 140 141 142 144 145 147 149 148 147 145 143 141 138 135 132 129 126 123 120 119 118 116 114 112 112 110 109 108 108 108 108 107 107 107 107 107 107 107 107 107 107 107 107 107 107 107 106 106 105 105 103 102 101 99 98 96 95 93 92 92 91 91 90 90 90 90 90 90
93 94 94 95 96 97 98 98 100 103 106 111 117 122 128 132 135 138 139 140 141 142 143 145 147 149 149 149 147 145 143 141 138 135 130 126 124 123 121 118 115 114 113 112 111 109 109 109 109 109 108 108 108 107 107 107 107 107 108 108 108 108 108 108 108 108 107 107 106 105 104 103 101 99 98 96 95 94 93 93 92 92 91 91 91 91
95 96 96 97 98 99 99 100 101 102 104 108 112 117 123 128 132 136 138 139 140 141 142 143 145 147 148 149 149 148 147 146 144 140 136 132 129 127 125 121 119 117 115 114 112 111 110 110 110 110 109 109 108 108 108 108 108 108 108 108 108 109 109 109 109 109 109 109 109 108 107 106 104 103 101 99 98 97 96 95 94 94 93 93 93 93
97 98 98 99 100 101 101 102 102 103 104 106 109 113 118 123 128 132 136 138 140 141 141 142 143 144 146 148 149 150 151 150 148 145 141 137 134 133 130 126 123 120 119 116 114 113 113 112 111 111 110 110 110 109 109 109 108 108 108 108 109 109 109 110 110 110 110 110 110 110 109 109 108 106 105 103 102 100 99 98 97 96 95 95 95 95
100 100 100 101 101 102 103 104 104 104 105 106 108 111 114 119 123 128 132 136 138 140 141 142 142 143 144 145 147 149 151 152 151 149 146 142 139 137 135 131 128 125 123 120 117 116 115 114 113 112 112 111 111 111 110 110 110 109 109 109 109 110 110 110 110 110 111 111 111 111 111 111 110 109 108 106 105 104 102 101 100 99 98 97 97 97
102 102 103 103 103 104 105 105 106 106 107 107 108 109 112 115 119 123 128 132 136 138 140 141 142 142 142 143 145 147 149 151 152 151 149 146 144 142 139 136 133 131 128 124 121 118 117 116 115 114 113 113 113 112 112 111 111 111 111 110 110 110 111 111 111 111 111 112 112 112 112 112 111 111 110 109 108 107 106 104 103 102 101 100 99 99
103 104 105 105 105 106 106 107 108 108 109 109 109 110 111 113 116 119 124 128 132 135 138 140 141 142 142 143 143 144 146 148 150 151 150 149 148 146 143 141 138 136 133 130 126 122 120 118 117 116 114 114 114 113 113 113 112 112 112 112 111 111 111 111 111 111 112 112 112 112 112 112 112 112 112 111 110 110 109 107 106 105 104 103 102 101
104 106 107 107 108 108 108 109 109 110 111 111 111 111 111 112 114 116 120 123 127 131 135 138 140 141 142 143 143 143 144 146 147 149 150 150 150 149 147 145 143 140 138 135 132 128 125 122 120 118 117 115 115 114 114 114 114 113 113 113 112 112 112 112 112 112 112 112 112 112 112 113 113 113 112 112 112 111 111 110 109 108 107 106 105 104
105 106 108 109 110 110 110 111 111 112 112 113 113 113 113 113 113 115 117 120 123 127 130 134 137 139 141 142 143 143 144 144 145 146 147 148 150 150 150 149 147 145 142 139 137 134 131 128 125 122 120 118 117 116 116 115 115 114 114 114 114 113 113 113 113 112 112 112 112 112 112 113 113 113 113 113 113 113 112 112 111 110 110 109 108 107
105 107 109 110 111 112 112 113 113 114 114 115 115 115 114 114 114 114 115 117 120 123 126 130 133 136 139 141 142 143 144 144 144 144 144 146 147 149 150 150 150 148 146 143 141 138 136 133 130 127 124 123 121 120 119 117 116 115 116 116 115 115 114 114 114 113 113 113 113 113 113 113 113 113 113 113 113 113 113 113 113 112 112 111 110 110
105 107 109 111 112 114 114 115 115 116 116 116 116 116 116 115 115 115 115 116 118 120 123 126 129 133 135 138 140 141 143 143 143 143 143 144 145 146 148 149 150 150 149 146 144 141 139 136 134 131 129 127 125 123 122 120 119 118 118 117 117 116 116 116 115 115 114 114 113 113 113 113 113 113 113 113 113 113 113 114 114 114 113 113 112 112
106 107 109 111 113 115 116 117 117 117 118 118 118 118 118 117 117 116 116 116 117 119 121 123 126 129 132 135 137 139 141 142 143 143 143 143 143 144 145 147 148 149 150 148 146 144 141 138 137 135 133 130 128 126 125 123 122 121 120 119 118 118 118 118 117 116 116 115 115 114 114 114 114 114 114 114 114 114 114 114 114 114 114 114 114 113
106 107 109 111 113 115 117 118 119 119 119 119 119 119 119 119 118 118 117 117 117 118 119 121 123 126 128 131 134 136 138 140 141 142 142 143 143 143 143 144 145 147 148 149 148 147 144 141 139 137 135 133 131 129 127 126 125 123 122 121 120 120 120 119 119 118 118 117 117 116 116 115 115 115 114 114 115 115 115 115 115 115 115 115 115 114
106 107 109 111 113 115 117 118 119 120 120 120 120 120 120 120 120 120 119 118 118 118 119 119 121 122 125 128 130 133 135 137 138 140 141 141 142 142 142 143 143 144 145 147 148 148 146 144 141 138 136 134 132 130 128 127 126 125 124 123 122 122 121 121 120 120 119 119 119 118 117 117 116 116 116 115 115 115 115 115 115 115 115 115 115 115
107 108 109 111 113 115 116 118 119 120 121 121 122 122 122 122 122 122 121 120 120 119 119 119 120 121 122 125 127 130 132 134 136 137 138 139 140 141 141 142 142 142 143 144 145 146 147 146 144 141 138 136 133 131 129 128 127 126 125 124 123 122 121 121 121 121 121 121 120 120 119 119 118 117 117 116 116 116 116 116 116 116 116 116 116 116
108 109 110 111 112 114 116 117 119 121 122 122 123 123 124 124 124 123 123 122 122 121 120 120 120 120 121 123 125 127 130 132 134 135 136 137 138 139 139 140 141 141 141 142 142 143 145 145 145 143 141 138 135 133 131 129 128 127 126 125 124 123 122 122 122 122 121 121 121 121 121 120 119 119 118 117 117 117 116 117 117 117 117 117 117 116
109 110 111 112 113 114 115 117 119 121 122 123 124 124 125 125 125 124 124 124 123 123 122 121 121 120 120 122 123 125 127 130 132 133 134 135 136 137 137 138 138 139 140 140 141 141 142 143 144 144 142 140 137 134 132 131 129 128 127 126 125 124 124 123 123 122 122 121 122 122 122 121 120 119 118 118 117 117 117 117 117 117 117 117 117 117
111 111 112 113 113 114 115 117 118 120 122 123 124 125 126 126 126 126 125 125 125 124 124 123 122 121 121 122 123 124 125 127 129 131 133 134 135 135 136 136 136 137 137 138 139 139 140 140 141 142 141 140 138 135 133 132 130 129 128 127 126 125 124 124 123 123 122 122 122 122 122 122 121 120 119 119 118 118 118 117 117 117 117 118 117 117
113 113 114 114 115 115 116 117 118 119 121 123 124 125 126 127 127 127 127 126 126 126 125 124 123 122 122 122 123 123 124 125 127 129 131 132 134 134 135 135 135 136 136 136 136 137 138 138 139 139 140 139 138 136 134 133 131 130 129 128 127 125 125 124 124 124 123 123 123 123 122 121 121 120 120 120 120 119 118 118 118 117 117 117 117 117
114 115 115 116 116 117 117 118 118 119 120 122 124 125 126 127 127 127 128 127 127 127 126 125 124 124 124 123 123 124 124 125 126 127 129 131 132 133 134 135 135 135 135 135 135 135 136 136 137 137 137 138 138 137 135 133 132 130 129 128 127 126 125 125 125 125 124 124 124 123 123 122 121 121 121 120 120 119 119 119 118 118 118 117 117 116
116 116 117 117 118 118 118 119 119 120 120 121 123 125 126 127 128 128 128 128 128 128 127 127 126 125 125 124 124 124 124 125 126 127 128 129 130 132 133 134 134 135 134 134 134 134 134 134 135 135 136 136 137 137 136 134 133 131 130 129 128 127 126 126 126 126 125 125 124 124 124 123 122 122 121 121 120 120 120 120 119 119 118 118 117 117
117 118 118 119 119 119 120 120 120 120 121 122 123 124 125 127 128 128 129 129 129 129 128 128 128 127 126 126 126 125 125 125 126 126 127 128 129 130 131 132 133 134 134 134 134 134 133 133 133 134 134 135 135 136 136 136 135 133 132 131 129 128 127 127 126 126 125 125 125 125 124 124 124 123 122 121 121 121 121 121 121 120 120 119 119 118
117 119 119 120 121 121 121 121 122 122 122 122 123 124 125 126 127 128 129 129 130 129 129 129 129 128 128 127 127 127 126 126 126 126 127 128 128 129 130 131 132 132 133 133 134 134 133 133 133 133 134 134 135 135 136 137 136 135 134 133 132 130 129 128 128 127 126 125 125 125 125 125 124 124 123 123 122 122 122 122 122 121 121 121 120 120
Wind_Direction
199 199 198 198 197 196 195 195 195 196 198 199 200 202 203 205 207 208 208 207 206 205 206 207 210 212 214 216 217 219 220 221 222 222 223 225 227 228 230 231 233 235 237 238 240 240 240 240 240 241 241 241 242 242 243 243 244 244 244 245 245 246 246 247 247 248 249 250 251 252 252 253 253 254 254 255 255 256 256 257 258 259 259 259 260 260
200 200 199 198 198 197 196 196 196 198 199 200 201 203 204 206 208 209 209 208 206 205 206 207 210 212 214 216 218 219 219 220 221 222 223 225 227 228 229 231 232 234 236 238 239 239 239 239 240 240 241 241 241 242 242 243 243 243 244 244 245 246 246 247 247 248 249 250 250 251 252 253 253 253 254 254 255 255 256 257 258 259 259 260 260 260
201 200 200 199 199 198 197 197 197 199 200 201 202 203 205 207 208 209 210 208 207 206 205 207 210 212 214 216 218 219 219 220 221 222 223 225 227 228 229 230 232 234 236 237 238 238 238 238 239 239 240 240 240 241 241 242 242 243 243 244 245 245 246 247 248 248 249 249 250 251 251 252 252 253 253 254 255 255 256 257 258 259 259 260 260 261
202 201 201 200 200 199 198 198 198 200 201 202 203 204 206 207 209 210 210 209 207 206 205 207 209 211 214 215 217 218 219 220 221 222 223 225 227 228 229 230 232 234 235 236 236 236 236 237 238 238 239 239 239 240 240 241 242 242 243 244 244 245 246 247 247 248 249 249 250 250 251 251 252 252 253 254 254 255 256 257 258 259 259 260 260 261
203 202 202 201 201 200 199 199 199 201 202 203 204 206 207 208 209 210 210 209 207 206 206 207 209 211 212 214 215 217 218 219 220 222 224 225 227 228 229 230 231 233 234 235 235 235 235 236 237 237 238 239 239 239 240 241 241 242 243 244 244 245 246 246 247 248 248 249 249 250 250 251 251 252 253 253 254 254 255 256 257 258 259 260 260 261
203 203 203 203 202 201 200 200 200 202 203 204 205 207 208 209 210 211 211 209 208 206 206 207 208 210 212 213 214 215 216 218 220 221 223 225 226 227 229 230 231 233 234 234 234 234 234 235 236 237 238 238 239 239 240 241 241 242 243 244 244 245 245 246 247 247 248 248 249 249 250 250 251 251 252 253 253 254 255 256 257 258 258 259 260 261
204 204 204 204 203 203 202 201 201 203 204 205 206 208 209 211 212 212 212 210 208 207 206 207 209 210 211 212 213 214 215 217 219 220 222 223 225 227 228 230 231 233 233 234 234 234 234 235 235 236 237 238 239 239 240 241 242 242 243 244 244 245 245 246 247 247 248 248 249 249 249 250 250 251 252 252 253 254 255 256 256 257 258 259 260 261
204 205 205 205 205 204 203 202 202 204 205 206 208 209 210 212 213 213 213 212 210 208 207 208 209 211 212 213 213 214 215 216 217 219 220 222 223 225 227 229 231 232 233 233 233 233 234 234 235 236 237 238 239 239 240 241 242 242 243 244 244 245 245 246 246 247 247 248 248 248 249 249 250 251 252 252 253 254 255 256 256 257 258 259 260 261
205 205 206 206 206 205 204 203 203 204 206 208 209 210 211 212 213 214 214 213 212 210 209 209 210 211 212 213 214 214 215 216 217 218 219 220 222 224 226 228 230 232 233 233 233 233 233 233 234 235 237 238 238 239 240 241 241 242 243 244 244 245 245 246 246 247 247 247 248 248 249 249 250 251 252 253 254 254 255 256 256 257 258 259 259 260
206 206 206 206 207 206 205 204 204 205 207 208 210 211 212 213 214 214 215 215 214 213 212 211 211 212 213 214 214 215 216 217 217 218 219 219 221 222 224 227 229 231 232 232 232 232 232 233 234 235 236 237 238 239 240 240 241 242 242 243 244 244 245 245 246 247 247 248 248 249 249 250 250 251 252 253 254 255 255 256 256 257 258 258 259 259
206 206 207 207 207 207 207 205 205 206 207 209 211 212 213 214 214 215 215 216 215 215 214 214 213 214 214 214 215 216 217 218 218 219 219 220 221 222 224 226 228 229 231 231 232 232 232 233 233 234 235 236 237 238 239 240 241 241 242 243 243 244 244 245 246 247 247 248 249 249 250 250 251 251 252 253 254 254 255 255 256 257 257 258 259 259
207 207 207 207 208 208 208 207 206 206 208 210 211 213 214 215 215 215 216 216 216 216 216 215 215 215 215 216 216 217 218 219 220 220 221 221 222 223 224 225 227 229 230 231 232 232 233 233 234 234 235 236 237 238 239 240 241 241 242 243 243 244 244 245 246 246 247 248 249 249 250 250 251 251 252 252 253 254 254 255 256 256 257 258 259 259
209 208 208 208 208 208 209 208 207 207 208 210 212 213 214 215 216 216 216 217 217 217 217 217 217 217 217 217 217 218 219 220 221 221 222 223 223 224 225 226 228 229 230 231 232 233 233 234 234 235 236 237 238 239 240 241 241 242 242 243 244 244 244 245 245 246 247 248 248 249 249 250 250 251 251 252 252 253 254 255 255 256 257 258 259 260
210 210 209 209 209 209 209 209 208 207 208 210 212 213 215 216 216 217 217 217 218 218 218 218 218 218 218 218 218 218 219 220 221 222 223 224 225 226 227 228 229 229 230 231 232 233 233 234 234 235 236 237 238 239 240 241 242 242 243 243 244 244 245 245 245 246 247 248 248 249 249 249 250 250 250 251 251 252 253 254 255 257 258 259 260 260
212 211 211 210 210 210 210 210 209 208 209 210 212 213 215 216 217 217 218 218 218 219 219 219 219 219 219 219 219 219 220 221 222 223 224 225 227 228 228 229 230 230 230 231 231 232 233 234 234 235 236 237 238 240 241 242 243 243 243 244 244 245 245 245 246 246 247 248 248 249 249 249 250 250 250 251 251 252 253 254 255 257 258 259 260 260
213 213 212 212 211 211 211 211 210 210 209 210 211 213 215 216 217 218 218 218 219 219 219 220 220 220 220 220 220 220 220 221 222 223 224 226 227 229 230 230 231 231 231 231 232 232 233 233 234 235 236 237 238 240 241 243 243 244 244 245 245 245 245 246 246 247 247 248 249 249 249 250 250 250 251 251 251 252 253 254 255 256 257 258 259 260
215 214 214 213 213 212 212 212 211 211 210 211 211 213 214 216 217 218 218 219 219 219 219 220 220 220 221 221 221 221 221 221 222 223 224 226 227 229 230 231 231 231 232 232 232 233 233 234 234 235 235 236 237 239 241 242 244 245 245 246 246 246 246 246 247 247 248 249 249 250 250 250 251 251 251 252 252 253 253 254 255 256 257 258 259 259
216 215 215 215 214 214 213 213 213 212 212 212 212 213 214 215 216 217 218 219 219 219 219 220 220 221 221 221 221 221 221 222 222 223 224 226 227 229 230 231 231 232 232 232 233 233 234 234 234 235 235 236 237 238 239 241 243 244 246 246 247 247 247 248 248 248 248 249 250 250 250 251 251 251 252 252 253 253 254 255 255 256 257 258 258 259
217 216 216 216 215 215 215 214 214 214 213 213 213 213 214 215 216 217 218 219 219 219 219 220 220 221 221 221 221 222 222 222 222 223 224 225 227 228 230 231 231 232 233 233 234 234 234 235 235 235 235 236 236 237 238 240 241 243 244 246 247 248 248 248 249 249 249 250 250 250 251 251 251 252 252 253 253 254 254 255 255 256 257 258 258 259
218 217 217 217 217 216 216 216 215 215 215 214 214 214 214 215 216 217 218 219 219 219 220 220 220 221 221 221 222 222 222 222 223 223 224 225 226 228 229 230 231 232 233 233 234 235 235 235 235 235 236 236 236 237 237 238 240 241 242 244 245 246 247 248 249 249 249 250 250 250 251 251 252 252 253 253 254 254 255 255 255 256 257 257 258 258
220 219 218 218 217 217 217 217 217 216 216 216 216 215 216 216 216 217 218 218 219 219 220 220 220 221 221 222 222 222 222 223 223 223 224 225 226 227 229 230 231 232 233 234 235 235 236 236 236 236 236 236 237 237 237 238 239 240 241 242 243 245 246 247 248 249 249 250 250 250 251 251 252 253 253 254 254 255 255 255 256 256 256 257 258 258
221 220 219 218 218 218 218 218 218 217 217 217 217 217 217 217 217 217 218 218 219 219 220 220 220 221 221 222 222 223 223 223 223 224 224 225 226 227 228 229 230 232 233 234 235 236 236 237 237 237 237 237 237 237 238 238 238 239 240 241 242 243 245 246 247 248 248 249 250 250 251 251 252 252 253 254 254 255 255 256 256 256 257 257 257 258
221 221 220 219 219 219 219 219 219 219 218 218 218 218 218 218 218 218 218 219 219 220 220 220 221 221 222 222 223 223 223 224 224 224 225 225 226 227 228 229 230 231 233 234 235 236 237 237 237 237 237 237 238 238 238 238 239 239 240 241 242 243 244 245 246 247 248 248 249 250 250 251 251 252 253 254 254 255 255 256 256 256 257 257 258 258
222 222 221 220 220 220 220 220 220 220 219 219 219 219 219 219 219 219 219 219 219 220 220 221 221 221 222 222 223 224 224 224 224 225 225 226 226 227 228 229 230 231 232 234 234 235 236 237 237 238 238 238 238 238 239 239 239 239 240 240 241 242 243 244 245 246 247 248 249 249 250 251 251 252 253 253 254 255 255 255 256 256 256 257 257 258
222 222 222 221 221 220 220 220 220 220 220 220 220 220 220 220 220 219 219 220 220 220 220 221 221 221 222 223 223 224 224 224 225 225 226 226 227 227 228 229 229 231 232 233 234 235 236 237 237 238 238 238 238 238 239 239 239 240 240 240 241 241 242 243 244 245 246 247 248 249 250 251 251 252 253 253 254 254 255 255 255 256 256 256 257 257
222 222 222 222 221 221 221 221 221 221 221 221 221 221 221 221 221 220 220 220 220 221 221 221 221 222 222 222 223 224 224 225 225 225 226 226 227 227 228 228 229 230 231 232 233 234 235 236 237 237 238 238 238 239 239 239 240 240 240 240 241 241 242 242 243 244 245 246 247 248 249 250 251 252 252 253 254 254 254 255 255 255 256 256 257 257
222 222 222 222 222 221 221 221 221 221 221 221 221 221 221 221 221 221 221 221 221 221 221 221 222 222 222 223 223 224 224 225 225 225 226 226 227 228 228 228 229 230 231 232 232 233 234 235 236 237 237 238 238 239 239 239 240 240 240 240 241 241 241 242 243 243 244 245 246 247 248 249 250 251 252 253 253 253 254 254 254 255 255 256 256 257
223 222 222 222 222 222 222 221 221 221 222 222 222 222 222 222 222 222 222 222 222 222 222 222 222 222 223 223 223 224 224 225 225 225 226 226 227 227 228 229 229 229 230 231 232 233 233 234 235 236 237 237 238 238 239 239 239 240 240 240 241 241 241 242 242 243 244 245 245 246 247 248 249 250 251 252 252 253 253 253 254 254 255 256 256 257
223 223 223 222 222 222 222 222 222 222 222 222 222 222 222 222 223 223 223 223 223 222 222 222 223 223 223 223 224 224 225 225 225 226 226 226 227 227 228 229 229 229 230 230 231 232 233 234 235 235 236 237 237 238 238 239 239 240 240 240 241 241 241 242 242 243 243 244 245 245 246 247 248 249 250 251 251 252 253 253 254 254 255 255 256 257
224 223 223 223 223 222 222 222 222 222 222 222 222 222 222 223 223 223 223 223 223 223 223 223 223 223 224 224 224 225 225 225 226 226 226 226 227 227 228 228 229 229 230 230 231 231 232 233 234 235 235 236 237 237 238 239 239 239 240 240 241 241 242 242 242 243 243 244 244 245 246 246 247 248 249 249 250 251 252 253 253 254 254 255 256 257
224 223 223 223 223 223 223 223 222 222 222 222 222 222 223 223 223 223 224 224 224 224 224 224 224 224 224 224 224 225 225 226 226 226 226 226 227 227 228 228 229 229 230 230 230 231 232 233 233 234 235 236 236 237 238 238 239 239 240 240 241 241 242 242 242 243 244 244 245 245 245 246 246 247 247 248 249 250 251 252 253 253 254 255 255 256
223 223 223 223 223 223 223 223 223 223 222 222 222 223 223 223 223 224 224 224 224 224 225 225 225 225 224 224 225 225 226 226 226 226 226 227 227 227 228 228 229 229 230 230 230 231 231 232 233 234 235 235 236 237 237 238 238 239 239 240 241 241 242 242 242 243 244 244 245 245 246 246 246 247 247 247 248 249 250 251 252 252 253 254 254 255
224 223 223 223 223 223 223 223 223 223 223 223 223 223 223 223 223 223 224 224 225 225 225 225 225 225 225 225 225 225 226 226 227 227 227 227 227 228 228 229 229 230 230 230 230 231 231 232 233 234 234 235 236 236 237 238 238 239 239 240 240 241 242 242 243 243 244 244 245 245 246 246 246 247 247 247 248 248 249 250 251 251 252 253 253 254
224 223 223 223 223 223 223 223 223 223 223 223 223 223 223 223 223 223 224 224 225 225 225 225 226 226 226 226 226 226 226 227 227 227 227 227 227 228 228 229 229 230 230 230 231 231 231 232 233 233 234 235 236 236 236 237 238 238 239 239 240 241 241 242 243 243 244 244 245 245 246 246 247 247 247 247 248 248 249 249 250 251 251 252 253 253
225 224 223 223 223 223 223 223 223 223 223 223 223 223 223 223 223 223 224 224 224 225 225 226 226 226 226 226 226 226 227 227 227 227 227 227 228 228 228 229 230 230 230 231 231 231 231 232 232 233 234 235 235 236 236 237 237 238 239 239 240 241 241 242 243 243 244 244 245 246 246 246 247 247 247 247 248 248 249 249 250 250 251 251 252 253
227 225 224 223 223 223 223 223 222 223 223 223 223 223 223 223 223 223 224 224 224 225 225 225 226 226 226 226 227 227 227 227 227 228 227 227 228 228 229 229 230 230 231 231 231 232 232 232 233 233 234 235 235 236 236 237 237 238 239 239 240 241 241 242 243 243 244 244 245 246 246 247 247 247 247 248 248 248 249 249 250 250 251 251 252 252
228 227 225 224 223 223 223 223 222 222 223 223 223 223 223 223 223 223 224 224 224 224 225 225 226 226 226 227 227 227 228 228 228 228 228 228 228 228 228 229 230 230 231 231 232 232 232 233 233 234 234 235 236 236 237 237 238 238 239 239 240 241 241 242 243 243 244 244 245 246 246 247 247 247 248 248 248 248 249 249 250 250 251 251 252 252
228 228 227 225 224 223 223 223 223 223 222 223 223 223 223 223 223 223 223 224 224 224 225 225 225 226 226 227 227 228 228 228 228 228 228 228 228 228 229 229 229 230 231 231 232 233 233 233 234 234 235 235 236 236 237 238 238 239 239 240 240 241 241 242 243 243 244 244 245 246 246 247 247 248 248 248 249 249 249 250 250 250 251 251 252 252
229 228 227 227 225 224 224 223 223 222 222 223 223 223 223 223 223 223 223 224 224 224 225 225 225 226 226 227 227 228 228 228 229 229 229 229 229 229 229 229 229 230 230 231 232 232 233 234 234 235 235 236 236 237 237 238 238 239 240 240 241 241 242 242 243 243 244 245 245 246 246 247 247 248 248 248 249 249 250 250 250 251 251 252 252 252
230 229 228 227 226 226 225 224 223 223 223 223 223 223 223 223 223 223 223 224 224 224 225 225 225 225 226 226 227 227 228 228 229 229 229 229 229 229 229 229 230 230 230 231 231 232 233 233 234 235 235 236 237 237 238 238 239 239 240 241 241 242 242 243 243 244 244 245 245 246 246 247 247 248 248 249 249 249 250 250 251 251 252 252 252 253
231 230 229 228 227 226 226 225 224 223 223 223 223 223 223 223 223 223 223 223 224 224 224 225 225 225 226 226 226 227 228 228 229 229 229 229 229 229 229 230 230 230 230 230 231 231 232 233 234 234 235 236 237 237 238 239 239 240 240 241 242 242 243 243 243 244 244 245 245 246 247 247 248 248 248 249 249 250 250 250 251 251 252 252 253 253
231 230 230 229 228 227 227 226 225 224 223 223 223 223 223 223 223 223 223 223 223 224 224 224 225 225 225 226 226 227 227 228 228 229 229 230 230 230 230 230 230 230 230 231 231 231 231 232 233 234 235 235 236 237 238 239 239 240 240 241 242 242 243 243 244 244 244 245 245 246 247 247 248 248 249 249 249 250 250 250 251 251 252 253 253 254
232 231 230 230 229 228 227 226 226 225 224 224 223 223 223 223 223 223 223 223 223 224 224 224 225 225 225 226 226 226 227 227 228 228 229 229 230 230 230 230 230 230 231 231 231 231 231 232 232 233 234 234 235 236 237 238 239 240 240 241 242 242 243 244 244 244 245 245 245 246 246 247 248 248 249 249 250 250 250 251 251 251 252 253 253 254
232 231 231 230 229 229 228 227 226 226 225 225 224 224 223 223 223 223 223 223 223 223 224 224 224 225 225 226 226 226 227 227 227 228 228 229 229 230 230 231 231 231 231 231 231 231 231 231 232 232 233 233 234 235 236 238 239 239 240 241 241 242 243 243 244 244 245 245 245 246 246 247 247 248 248 249 250 250 250 251 251 252 252 253 253 254
232 231 231 230 230 229 229 228 227 226 226 225 225 224 224 223 223 223 223 223 223 223 224 224 224 224 225 225 226 226 227 227 227 227 228 228 229 230 230 231 231 231 231 231 231 231 231 231 232 232 232 233 233 234 236 237 238 239 239 240 241 241 242 242 243 244 244 245 245 246 246 247 247 247 248 248 249 250 250 251 251 252 252 253 253 254
232 231 231 230 230 230 229 228 227 227 226 226 225 225 224 224 223 223 223 223 223 223 223 224 224 224 225 225 226 226 227 227 227 227 228 228 228 229 229 230 231 231 231 232 232 232 232 232 232 232 232 232 233 234 235 236 237 238 239 239 240 241 241 242 242 243 244 244 245 245 246 246 247 247 247 248 248 249 250 250 251 251 252 253 253 254
231 231 231 230 230 229 229 229 228 227 226 226 226 225 225 225 224 223 223 223 223 223 223 224 224 224 224 225 225 226 226 227 227 227 228 228 228 228 229 229 230 231 231 231 232 232 232 232 232 232 232 232 232 233 234 235 236 237 238 239 239 240 241 241 242 242 243 243 244 245 245 246 246 246 247 247 248 248 249 249 250 251 252 252 253 254
231 230 230 230 229 229 229 228 228 228 227 226 226 226 225 225 225 224 223 223 223 223 223 223 224 224 224 225 225 226 226 227 227 227 228 228 228 228 229 229 229 230 230 231 231 232 232 232 232 232 232 232 232 232 233 234 235 236 237 238 238 239 240 240 241 242 242 243 243 244 244 245 245 246 246 247 247 248 248 249 249 250 251 252 252 253
230 230 229 229 229 229 228 228 228 228 227 227 226 226 225 225 225 225 224 223 223 223 223 223 223 224 224 225 225 226 226 227 227 227 228 228 228 228 229 229 229 229 230 230 231 231 232 232 232 233 233 233 232 232 232 233 234 235 236 236 237 238 239 239 240 241 241 242 242 243 243 244 244 245 245 246 246 247 248 248 249 249 250 251 252 252
228 229 229 229 229 228 228 228 228 227 227 227 226 226 225 225 225 225 224 224 224 223 223 223 223 223 224 224 225 226 226 226 227 227 228 228 228 228 229 229 229 229 229 230 230 231 231 231 232 232 232 233 233 232 232 232 233 233 234 235 236 237 237 238 239 240 240 241 241 242 243 243 244 244 245 245 246 246 247 248 248 249 250 250 251 252
228 228 228 228 228 228 228 227 227 227 227 227 226 226 225 225 225 225 225 224 224 224 223 223 223 223 223 224 225 225 226 226 227 227 227 228 228 228 229 229 229 229 229 230 230 230 230 231 231 232 232 232 232 232 232 232 232 232 233 234 235 236 236 237 238 238 239 240 240 241 242 242 243 243 244 244 245 246 246 247 248 249 249 250 251 251
Height
10594 10597 10601 10605 10609 10612 10615 10618 10620 10622 10622 10622 10622 10624 10626 10628 10629 10630 10633 10639 10645 10650 10655 10659 10662 10665 10668 10672 10674 10677 10681 10685 10689 10694 10699 10702 10703 10704 10704 10704 10705 10707 10709 10711 10712 10714 10715 10717 10717 10719 10720 10722 10724 10727 10729 10731 10734 10735 10735 10737 10738 10739 10742 10744 10747 10749 10750 10752 10754 10755 10757 10759 10760 10762 10762 10764 10764 10765 10766 10767 10769 10769 10769 10769 10770 10770
10591 10595 10599 10602 10605 10608 10610 10613 10615 10617 10616 10616 10617 10618 10620 10621 10622 10624 10627 10634 10640 10646 10650 10655 10659 10662 10665 10667 10670 10674 10677 10680 10685 10689 10695 10698 10700 10701 10702 10701 10701 10702 10705 10706 10707 10708 10709 10710 10711 10712 10714 10716 10719 10720 10722 10725 10728 10730 10730 10731 10733 10735 10737 10739 10742 10744 10745 10747 10749 10750 10752 10754 10755 10757 10758 10759 10760 10761 10762 10764 10765 10765 10765 10765 10765 10765
10589 10592 10595 10598 10600 10603 10605 10609 10610 10611 10610 10610 10611 10612 10614 10614 10615 10617 10620 10628 10635 10640 10645 10649 10654 10657 10660 10663 10666 10670 10672 10676 10680 10684 10689 10694 10696 10698 10699 10700 10700 10700 10701 10702 10704 10704 10704 10704 10705 10706 10708 10710 10712 10715 10717 10718 10721 10724 10725 10727 10729 10730 10732 10735 10737 10739 10740 10742 10744 10745 10747 10749 10751 10752 10754 10754 10755 10757 10758 10760 10760 10761 10761 10760 10760 10761
10585 10588 10590 10592 10595 10598 10600 10603 10605 10606 10606 10606 10607 10607 10607 10608 10608 10610 10614 10621 10628 10634 10639 10643 10647 10650 10653 10656 10660 10664 10667 10670 10674 10678 10682 10686 10690 10692 10694 10695 10697 10697 10696 10696 10697 10699 10701 10699 10699 10700 10702 10704 10706 10709 10710 10712 10714 10717 10719 10722 10725 10726 10728 10730 10732 10734 10735 10737 10739 10740 10742 10744 10746 10747 10749 10750 10750 10752 10754 10755 10756 10757 10756 10756 10756 10757
10582 10584 10585 10589 10591 10593 10595 10598 10600 10601 10601 10602 10602 10602 10602 10602 10602 10604 10608 10614 10620 10626 10631 10635 10639 10642 10645 10649 10652 10655 10660 10663 10667 10670 10674 10677 10680 10684 10687 10689 10690 10689 10689 10689 10689 10691 10694 10694 10694 10694 10695 10697 10700 10702 10705 10707 10709 10711 10714 10717 10720 10722 10723 10725 10727 10729 10730 10732 10734 10735 10737 10739 10740 10742 10744 10745 10746 10747 10749 10751 10752 10752 10752 10751 10751 10752
10578 10580 10582 10585 10587 10589 10591 10594 10596 10597 10597 10597 10597 10597 10597 10596 10597 10599 10602 10609 10614 10619 10624 10627 10631 10634 10637 10641 10645 10649 10652 10656 10659 10662 10665 10668 10671 10675 10679 10682 10682 10681 10680 10680 10681 10683 10685 10687 10687 10689 10689 10692 10694 10697 10699 10702 10704 10706 10709 10712 10715 10717 10719 10720 10722 10724 10726 10727 10729 10730 10732 10734 10736 10738 10739 10739 10740 10742 10745 10747 10747 10747 10746 10746 10747 10749
10573 10576 10579 10582 10583 10584 10587 10590 10592 10593 10592 10592 10592 10592 10592 10592 10594 10595 10599 10604 10609 10614 10617 10621 10624 10627 10630 10633 10637 10640 10644 10648 10651 10654 10657 10661 10664 10667 10670 10674 10675 10674 10672 10672 10673 10675 10678 10680 10681 10682 10684 10686 10689 10691 10694 10696 10699 10701 10704 10707 10710 10712 10714 10715 10717 10719 10720 10722 10724 10725 10727 10729 10731 10732 10733 10734 10735 10738 10740 10741 10742 10741 10741 10741 10743 10745
10569 10572 10575 10577 10579 10581 10584 10587 10588 10588 10587 10587 10587 10587 10588 10589 10590 10594 10597 10601 10605 10609 10612 10615 10619 10621 10624 10627 10629 10632 10635 10639 10642 10645 10649 10653 10657 10660 10664 10666 10667 10668 10667 10665 10666 10668 10671 10674 10675 10677 10679 10680 10683 10685 10688 10690 10694 10696 10699 10702 10704 10706 10707 10709 10711 10712 10714 10715 10718 10720 10723 10724 10725 10727 10728 10729 10731 10733 10735 10736 10736 10735 10735 10737 10739 10741
10564 10566 10569 10572 10574 10577 10580 10582 10583 10584 10584 10583 10583 10583 10584 10585 10587 10591 10595 10599 10602 10605 10607 10609 10612 10615 10618 10621 10624 10626 10629 10631 10634 10637 10640 10644 10647 10651 10654 10656 10658 10659 10660 10660 10662 10663 10665 10667 10670 10672 10674 10675 10678 10680 10682 10685 10688 10691 10694 10696 10698 10700 10702 10704 10705 10707 10707 10709 10711 10714 10718 10719 10720 10722 10724 10725 10726 10728 10730 10730 10730 10730 10730 10733 10735 10736
10557 10560 10562 10565 10568 10571 10574 10575 10577 10579 10579 10579 10579 10579 10580 10581 10584 10588 10592 10597 10600 10602 10603 10604 10605 10608 10611 10615 10618 10621 10624 10625 10628 10630 10634 10636 10639 10642 10644 10645 10647 10648 10650 10653 10656 10659 10661 10663 10665 10667 10669 10672 10674 10676 10678 10681 10684 10685 10687 10690 10692 10694 10695 10697 10699 10700 10701 10703 10705 10709 10712 10714 10716 10717 10719 10720 10722 10723 10724 10724 10724 10724 10726 10728 10730 10732
10551 10554 10557 10559 10562 10565 10567 10569 10572 10574 10575 10575 10575 10576 10577 10579 10581 10585 10589 10592 10595 10597 10599 10600 10601 10603 10605 10609 10613 10616 10619 10621 10624 10626 10629 10631 10633 10634 10635 10636 10637 10638 10640 10644 10649 10653 10656 10658 10660 10663 10665 10668 10670 10672 10674 10676 10679 10680 10682 10684 10685 10687 10690 10692 10694 10695 10695 10698 10700 10704 10707 10709 10711 10712 10714 10715 10717 10717 10718 10718 10718 10719 10721 10723 10725 10727
10545 10547 10550 10553 10556 10559 10562 10564 10566 10569 10570 10571 10572 10573 10574 10575 10577 10580 10584 10586 10589 10592 10594 10595 10597 10599 10601 10604 10608 10611 10614 10617 10619 10621 10624 10625 10627 10628 10629 10629 10630 10631 10634 10637 10642 10646 10650 10652 10655 10657 10660 10664 10665 10667 10668 10670 10672 10674 10677 10678 10680 10682 10684 10686 10688 10689 10690 10693 10695 10699 10701 10704 10705 10707 10709 10710 10711 10712 10712 10712 10713 10714 10716 10718 10720 10722
10539 10541 10544 10546 10549 10552 10554 10557 10560 10564 10566 10567 10567 10568 10569 10569 10572 10575 10579 10580 10583 10586 10588 10590 10592 10594 10597 10600 10603 10606 10609 10612 10614 10616 10619 10620 10621 10622 10622 10623 10624 10627 10629 10633 10636 10639 10642 10646 10649 10652 10655 10658 10660 10662 10664 10665 10667 10668 10670 10672 10674 10677 10679 10681 10682 10684 10685 10687 10690 10694 10696 10698 10700 10701 10703 10704 10705 10706 10706 10707 10707 10709 10711 10714 10715 10717
10534 10536 10538 10540 10542 10544 10547 10550 10553 10556 10559 10559 10560 10560 10560 10563 10566 10570 10573 10576 10579 10581 10584 10585 10587 10589 10592 10595 10598 10600 10603 10605 10608 10610 10613 10614 10615 10615 10616 10617 10619 10622 10625 10628 10630 10633 10635 10639 10643 10647 10650 10653 10655 10657 10659 10660 10662 10664 10665 10667 10669 10671 10673 10675 10677 10678 10679 10682 10684 10687 10690 10692 10694 10695 10697 10698 10699 10700 10701 10702 10703 10705 10707 10709 10711 10712
10528 10530 10532 10534 10535 10537 10539 10542 10545 10547 10549 10550 10552 10554 10556 10560 10563 10566 10568 10570 10573 10575 10579 10582 10584 10585 10587 10590 10592 10595 10597 10600 10602 10605 10607 10608 10609 10609 10611 10612 10614 10617 10620 10623 10625 10627 10629 10633 10637 10641 10645 10649 10650 10652 10653 10654 10657 10659 10661 10663 10664 10665 10669 10670 10671 10672 10674 10676 10679 10681 10684 10686 10688 10689 10690 10692 10694 10695 10697 10698 10699 10700 10703 10704 10706 10707
10520 10523 10525 10526 10528 10530 10532 10535 10537 10539 10540 10543 10546 10550 10553 10556 10558 10560 10562 10564 10566 10570 10574 10576 10579 10580 10582 10584 10586 10589 10592 10594 10597 10599 10601 10602 10602 10604 10605 10608 10610 10612 10615 10617 10619 10620 10623 10627 10632 10635 10640 10643 10645 10647 10648 10649 10650 10653 10656 10659 10660 10662 10664 10665 10666 10667 10669 10670 10674 10676 10679 10680 10682 10683 10684 10686 10688 10690 10692 10694 10695 10697 10699 10700 10701 10702
10513 10515 10518 10519 10521 10524 10525 10528 10530 10532 10534 10537 10540 10544 10546 10547 10549 10551 10554 10557 10560 10564 10568 10570 10572 10574 10576 10579 10581 10584 10586 10589 10590 10593 10595 10596 10597 10598 10600 10602 10604 10606 10609 10612 10614 10615 10618 10622 10626 10630 10634 10637 10640 10642 10644 10644 10645 10647 10649 10652 10655 10658 10659 10662 10663 10664 10664 10666 10668 10671 10673 10675 10676 10677 10679 10680 10682 10685 10687 10689 10691 10692 10694 10695 10696 10697
10505 10507 10509 10512 10514 10517 10519 10521 10524 10525 10527 10530 10533 10534 10536 10538 10540 10544 10547 10550 10554 10557 10560 10563 10565 10567 10569 10572 10575 10578 10580 10583 10584 10586 10589 10590 10591 10592 10594 10595 10598 10600 10604 10606 10608 10610 10613 10617 10621 10625 10629 10632 10634 10637 10639 10640 10640 10642 10643 10645 10649 10652 10654 10657 10659 10660 10660 10662 10664 10665 10667 10669 10670 10671 10672 10674 10677 10680 10682 10685 10687 10688 10689 10690 10691 10692
10496 10498 10501 10504 10507 10509 10511 10514 10517 10519 10521 10524 10525 10527 10528 10531 10534 10538 10541 10544 10547 10550 10552 10555 10558 10560 10563 10565 10567 10570 10574 10577 10579 10580 10582 10584 10585 10586 10588 10590 10592 10595 10598 10600 10602 10605 10608 10612 10615 10619 10623 10626 10629 10631 10634 10635 10636 10637 10638 10639 10641 10644 10647 10650 10652 10654 10655 10657 10659 10660 10661 10663 10664 10665 10668 10669 10672 10675 10678 10680 10682 10683 10684 10685 10686 10687
10487 10490 10492 10495 10498 10501 10504 10507 10509 10510 10514 10516 10518 10520 10522 10525 10527 10530 10533 10535 10538 10542 10544 10548 10551 10554 10556 10558 10560 10563 10567 10570 10572 10574 10576 10577 10579 10580 10582 10584 10586 10589 10592 10595 10597 10599 10602 10606 10610 10614 10617 10620 10623 10625 10628 10630 10632 10633 10634 10635 10636 10638 10640 10642 10644 10646 10648 10650 10653 10655 10656 10657 10657 10659 10660 10663 10666 10670 10674 10676 10678 10679 10679 10680 10681 10682
10479 10481 10483 10485 10489 10493 10495 10498 10500 10502 10505 10508 10510 10513 10516 10518 10520 10522 10525 10527 10530 10534 10537 10541 10544 10545 10548 10550 10553 10555 10560 10563 10565 10566 10567 10570 10572 10574 10576 10578 10580 10583 10586 10589 10590 10593 10596 10600 10604 10607 10611 10615 10617 10620 10622 10624 10626 10628 10630 10631 10632 10633 10634 10635 10637 10639 10640 10642 10645 10647 10650 10651 10652 10652 10654 10657 10660 10664 10667 10669 10671 10673 10675 10675 10675 10677
10470 10472 10474 10477 10481 10484 10485 10488 10491 10495 10499 10501 10504 10507 10509 10510 10512 10515 10518 10520 10524 10527 10530 10533 10535 10537 10540 10543 10545 10548 10552 10555 10557 10558 10559 10563 10566 10568 10570 10572 10575 10577 10580 10582 10585 10587 10590 10594 10597 10601 10605 10608 10611 10614 10617 10619 10620 10622 10624 10625 10628 10629 10630 10630 10632 10633 10634 10636 10637 10639 10642 10645 10647 10648 10649 10651 10655 10658 10660 10663 10665 10667 10669 10669 10670 10671
10462 10464 10466 10469 10472 10474 10476 10479 10483 10487 10490 10493 10495 10497 10499 10500 10504 10507 10510 10513 10516 10519 10521 10523 10525 10528 10532 10536 10539 10540 10544 10547 10549 10550 10554 10557 10559 10561 10563 10567 10570 10572 10574 10576 10579 10582 10585 10587 10590 10594 10598 10602 10605 10608 10610 10612 10614 10616 10618 10619 10621 10623 10624 10625 10627 10628 10629 10630 10631 10632 10634 10638 10640 10642 10644 10646 10649 10652 10655 10657 10659 10660 10662 10663 10664 10665
10453 10455 10458 10460 10463 10465 10467 10471 10474 10478 10481 10484 10486 10487 10489 10492 10496 10499 10501 10505 10508 10510 10512 10515 10519 10523 10527 10530 10531 10533 10537 10540 10542 10544 10548 10550 10552 10554 10557 10561 10564 10566 10567 10570 10573 10576 10579 10582 10584 10587 10591 10595 10598 10601 10604 10606 10609 10610 10612 10614 10615 10617 10618 10620 10622 10623 10624 10624 10625 10626 10628 10630 10633 10636 10639 10642 10644 10647 10649 10651 10653 10654 10655 10657 10658 10659
10444 10446 10449 10451 10454 10456 10459 10462 10464 10467 10471 10474 10477 10479 10482 10485 10489 10492 10494 10497 10500 10504 10506 10510 10514 10518 10520 10520 10522 10525 10527 10530 10534 10538 10541 10543 10544 10547 10550 10555 10558 10559 10560 10563 10566 10570 10573 10575 10578 10581 10585 10589 10592 10594 10597 10600 10602 10604 10606 10608 10610 10611 10612 10614 10615 10617 10619 10620 10620 10621 10622 10624 10627 10630 10634 10637 10639 10641 10643 10645 10647 10649 10650 10651 10652 10654
10435 10437 10439 10442 10444 10447 10450 10452 10454 10457 10460 10464 10467 10470 10474 10477 10481 10484 10487 10490 10493 10495 10499 10503 10507 10509 10509 10510 10513 10516 10518 10522 10526 10530 10533 10535 10538 10541 10544 10548 10550 10552 10553 10556 10560 10564 10567 10569 10572 10575 10579 10582 10584 10587 10590 10593 10596 10598 10600 10602 10603 10604 10605 10608 10610 10611 10613 10614 10615 10617 10618 10620 10622 10624 10627 10630 10634 10636 10637 10639 10640 10642 10644 10646 10648 10650
10425 10427 10430 10432 10435 10437 10440 10442 10445 10447 10450 10454 10457 10460 10464 10468 10471 10474 10477 10480 10482 10485 10489 10494 10496 10497 10498 10502 10505 10509 10510 10514 10519 10523 10525 10529 10532 10535 10537 10540 10542 10544 10547 10550 10554 10557 10560 10563 10565 10569 10572 10575 10577 10580 10584 10586 10589 10591 10594 10595 10597 10598 10599 10601 10602 10605 10607 10609 10610 10612 10613 10615 10617 10619 10622 10625 10628 10630 10632 10633 10635 10637 10637 10640 10643 10644
10415 10417 10420 10422 10425 10427 10430 10432 10435 10437 10440 10444 10447 10450 10454 10458 10462 10465 10466 10467 10470 10474 10480 10484 10487 10488 10490 10495 10499 10500 10501 10506 10511 10514 10517 10522 10525 10528 10529 10532 10535 10538 10540 10543 10547 10550 10554 10557 10559 10562 10565 10568 10571 10574 10577 10579 10582 10584 10587 10589 10590 10592 10594 10595 10596 10597 10599 10602 10604 10606 10608 10610 10612 10614 10617 10620 10622 10624 10627 10628 10630 10632 10632 10635 10637 10637
10404 10407 10409 10412 10414 10417 10419 10422 10425 10427 10430 10433 10436 10440 10444 10448 10452 10453 10454 10455 10460 10466 10472 10476 10478 10480 10483 10487 10489 10490 10493 10499 10502 10505 10509 10515 10519 10520 10521 10524 10528 10531 10534 10537 10540 10544 10548 10550 10552 10555 10559 10562 10565 10567 10570 10572 10575 10577 10580 10582 10584 10585 10587 10589 10590 10592 10593 10594 10597 10599 10602 10604 10607 10609 10612 10614 10616 10619 10620 10622 10625 10627 10628 10629 10630 10631
10393 10396 10399 10401 10404 10406 10409 10412 10415 10417 10420 10423 10426 10430 10434 10437 10440 10441 10442 10445 10452 10460 10464 10465 10467 10470 10474 10478 10481 10484 10487 10491 10493 10496 10501 10508 10512 10512 10513 10518 10522 10524 10526 10530 10534 10538 10541 10543 10545 10549 10552 10555 10558 10561 10564 10566 10569 10570 10573 10575 10577 10579 10580 10582 10584 10585 10587 10588 10590 10592 10595 10597 10600 10604 10607 10609 10611 10613 10615 10617 10620 10622 10624 10624 10624 10624
10381 10384 10387 10390 10393 10395 10399 10401 10404 10407 10410 10412 10416 10419 10423 10426 10429 10431 10433 10438 10445 10450 10452 10454 10457 10462 10466 10470 10474 10477 10480 10481 10482 10486 10494 10500 10503 10503 10505 10511 10514 10516 10519 10524 10527 10530 10533 10535 10538 10542 10545 10548 10551 10554 10557 10559 10562 10564 10566 10568 10570 10572 10574 10575 10577 10579 10580 10582 10584 10585 10588 10590 10594 10597 10600 10603 10605 10607 10609 10612 10614 10617 10617 10618 10618 10619
10370 10373 10376 10379 10382 10385 10388 10390 10394 10396 10399 10402 10405 10409 10412 10415 10418 10421 10425 10429 10434 10438 10439 10442 10448 10454 10458 10462 10465 10468 10469 10469 10470 10477 10486 10492 10494 10494 10497 10504 10507 10508 10511 10516 10520 10523 10525 10528 10531 10534 10538 10541 10544 10547 10549 10552 10555 10557 10559 10561 10564 10565 10567 10569 10571 10572 10574 10575 10577 10579 10582 10584 10587 10590 10594 10596 10598 10600 10602 10605 10608 10610 10611 10612 10612 10612
10359 10362 10365 10367 10371 10374 10377 10380 10382 10385 10389 10391 10394 10397 10401 10404 10407 10411 10414 10419 10423 10426 10429 10434 10439 10444 10448 10452 10455 10457 10457 10459 10462 10470 10479 10484 10485 10486 10490 10496 10499 10500 10504 10509 10512 10515 10519 10521 10524 10527 10530 10534 10536 10539 10542 10545 10548 10550 10552 10554 10557 10558 10560 10563 10565 10566 10567 10569 10570 10572 10575 10578 10581 10584 10587 10589 10591 10593 10595 10597 10600 10603 10604 10605 10605 10606
10349 10351 10354 10357 10360 10363 10365 10368 10371 10374 10377 10380 10383 10387 10390 10394 10397 10400 10404 10408 10412 10416 10420 10425 10430 10434 10437 10441 10445 10447 10449 10451 10455 10462 10470 10475 10477 10478 10482 10488 10491 10493 10495 10500 10505 10509 10512 10515 10517 10520 10524 10525 10529 10532 10535 10538 10540 10543 10545 10547 10549 10551 10553 10556 10559 10560 10561 10562 10564 10565 10568 10570 10574 10577 10580 10582 10584 10586 10587 10590 10592 10595 10597 10598 10599 10600
10337 10340 10342 10345 10348 10351 10354 10357 10360 10363 10365 10369 10372 10375 10379 10383 10387 10390 10394 10398 10402 10406 10410 10415 10419 10422 10426 10430 10434 10438 10440 10442 10446 10452 10459 10465 10467 10470 10474 10479 10482 10484 10487 10492 10497 10500 10504 10507 10510 10513 10515 10518 10521 10524 10527 10530 10533 10535 10538 10540 10542 10544 10546 10549 10551 10553 10555 10556 10557 10559 10560 10563 10566 10569 10572 10575 10577 10579 10581 10583 10585 10588 10590 10591 10593 10595
10327 10329 10332 10334 10337 10339 10342 10345 10349 10351 10354 10357 10360 10364 10368 10372 10376 10380 10384 10387 10392 10396 10400 10404 10408 10412 10416 10420 10424 10427 10429 10431 10435 10442 10449 10455 10459 10461 10465 10470 10473 10475 10479 10484 10488 10492 10497 10500 10502 10505 10509 10511 10514 10516 10519 10522 10525 10529 10531 10533 10535 10537 10539 10542 10544 10546 10548 10550 10551 10552 10554 10556 10558 10561 10564 10567 10569 10572 10574 10576 10579 10580 10582 10584 10585 10588
10316 10319 10321 10324 10325 10328 10330 10334 10337 10340 10342 10346 10349 10353 10357 10362 10366 10370 10374 10378 10382 10385 10390 10394 10398 10402 10407 10410 10414 10417 10419 10421 10426 10433 10440 10445 10449 10452 10457 10461 10464 10467 10472 10477 10480 10484 10488 10492 10495 10499 10502 10505 10506 10508 10510 10514 10519 10522 10524 10525 10527 10530 10532 10534 10537 10539 10542 10543 10545 10546 10547 10549 10551 10554 10556 10559 10561 10564 10567 10569 10571 10573 10575 10577 10579 10581
10305 10307 10310 10313 10315 10317 10320 10322 10325 10328 10331 10334 10338 10342 10347 10351 10355 10360 10364 10368 10372 10375 10379 10383 10387 10392 10396 10400 10404 10407 10410 10413 10419 10425 10430 10435 10439 10443 10448 10452 10454 10458 10464 10468 10471 10475 10480 10484 10488 10491 10494 10496 10498 10500 10503 10507 10511 10514 10515 10517 10520 10522 10525 10527 10530 10532 10535 10536 10538 10540 10542 10543 10545 10547 10549 10552 10554 10557 10559 10561 10564 10566 10569 10570 10573 10575
10292 10295 10299 10302 10305 10307 10309 10312 10314 10317 10320 10323 10327 10332 10337 10341 10345 10350 10354 10357 10362 10365 10369 10373 10377 10382 10386 10390 10394 10397 10400 10405 10410 10415 10419 10423 10428 10433 10438 10442 10445 10450 10455 10459 10463 10467 10472 10477 10480 10482 10485 10487 10490 10493 10496 10500 10503 10505 10507 10509 10513 10516 10519 10520 10522 10525 10527 10529 10531 10533 10535 10537 10539 10541 10543 10545 10547 10549 10552 10554 10555 10558 10560 10564 10566 10568
10279 10283 10287 10290 10293 10296 10299 10300 10303 10305 10309 10313 10317 10322 10327 10331 10335 10339 10344 10347 10351 10355 10359 10363 10367 10372 10376 10380 10384 10388 10391 10395 10399 10404 10408 10412 10418 10423 10429 10432 10436 10440 10445 10450 10454 10459 10464 10469 10471 10474 10477 10480 10483 10485 10489 10492 10495 10497 10499 10503 10506 10509 10510 10512 10515 10518 10520 10522 10524 10526 10527 10530 10532 10534 10536 10538 10540 10542 10544 10546 10548 10550 10553 10555 10558 10561
10267 10271 10275 10278 10281 10284 10288 10290 10293 10296 10300 10304 10308 10312 10317 10321 10325 10329 10333 10337 10341 10345 10349 10354 10358 10362 10367 10370 10374 10378 10382 10385 10389 10393 10398 10403 10408 10413 10418 10422 10426 10430 10435 10440 10445 10450 10455 10459 10462 10465 10469 10472 10475 10479 10482 10484 10487 10489 10492 10496 10499 10499 10500 10504 10508 10511 10513 10515 10517 10519 10520 10522 10525 10527 10529 10531 10533 10535 10537 10539 10542 10544 10545 10548 10550 10553
10255 10259 10262 10265 10269 10273 10277 10280 10284 10287 10291 10295 10299 10302 10306 10310 10314 10318 10322 10327 10331 10335 10339 10344 10348 10352 10357 10360 10364 10368 10371 10375 10379 10383 10388 10393 10397 10402 10407 10412 10416 10420 10425 10431 10436 10441 10445 10449 10454 10457 10461 10464 10468 10471 10474 10477 10479 10482 10485 10489 10490 10492 10494 10498 10501 10504 10505 10507 10510 10512 10514 10515 10517 10520 10522 10524 10526 10528 10530 10533 10535 10537 10539 10540 10542 10545
10243 10246 10249 10253 10257 10261 10265 10269 10274 10278 10282 10285 10288 10291 10294 10298 10302 10307 10312 10317 10321 10325 10329 10334 10338 10342 10347 10350 10354 10357 10361 10365 10369 10374 10378 10382 10387 10392 10397 10402 10406 10411 10416 10421 10426 10431 10435 10440 10445 10449 10452 10455 10460 10464 10467 10469 10471 10474 10477 10480 10482 10485 10489 10491 10492 10494 10497 10500 10502 10504 10507 10509 10510 10512 10515 10517 10519 10521 10524 10526 10528 10530 10532 10534 10535 10538
10228 10232 10236 10240 10245 10249 10253 10258 10262 10267 10271 10274 10277 10280 10284 10288 10293 10298 10303 10307 10311 10315 10319 10324 10329 10333 10337 10341 10344 10347 10351 10355 10359 10364 10369 10373 10377 10382 10387 10392 10396 10400 10406 10411 10416 10420 10425 10430 10435 10440 10443 10447 10452 10457 10459 10461 10463 10466 10469 10472 10475 10479 10482 10483 10484 10485 10489 10492 10495 10497 10500 10502 10504 10506 10509 10511 10513 10515 10517 10519 10521 10523 10525 10527 10529 10532
10214 10219 10223 10228 10233 10237 10241 10245 10250 10254 10259 10263 10267 10270 10274 10278 10284 10289 10293 10297 10301 10305 10309 10314 10319 10324 10329 10332 10335 10338 10342 10345 10350 10354 10359 10363 10368 10372 10377 10382 10386 10390 10396 10401 10405 10410 10415 10420 10425 10430 10434 10439 10444 10449 10451 10453 10455 10458 10460 10463 10467 10470 10474 10475 10477 10480 10484 10485 10487 10489 10492 10495 10497 10500 10503 10505 10507 10508 10510 10512 10514 10516 10518 10520 10523 10525
10201 10206 10210 10215 10218 10223 10227 10232 10236 10241 10247 10252 10257 10260 10264 10269 10274 10278 10282 10287 10292 10296 10300 10305 10310 10315 10319 10322 10324 10328 10332 10337 10340 10345 10349 10353 10358 10362 10367 10372 10376 10380 10386 10390 10395 10399 10404 10410 10415 10420 10424 10430 10437 10440 10442 10444 10447 10450 10452 10455 10459 10462 10465 10468 10470 10474 10476 10477 10479 10482 10484 10487 10491 10494 10496 10497 10499 10501 10503 10505 10507 10509 10511 10514 10516 10519
10187 10192 10196 10200 10204 10209 10213 10218 10223 10229 10235 10241 10245 10249 10254 10259 10264 10268 10272 10277 10282 10287 10291 10296 10301 10306 10309 10311 10314 10319 10324 10327 10330 10335 10339 10344 10348 10353 10357 10362 10366 10370 10376 10380 10385 10390 10395 10400 10405 10410 10415 10422 10428 10431 10433 10435 10439 10442 10445 10447 10450 10454 10458 10460 10463 10465 10467 10470 10472 10475 10477 10480 10484 10487 10489 10490 10492 10494 10497 10499 10501 10503 10504 10507 10509 10511
10172 10177 10181 10186 10191 10196 10201 10205 10211 10217 10223 10228 10232 10237 10242 10248 10253 10258 10262 10267 10272 10277 10282 10287 10293 10297 10300 10302 10305 10310 10314 10317 10320 10325 10329 10334 10339 10343 10347 10352 10356 10361 10366 10371 10375 10380 10385 10390 10395 10401 10407 10413 10417 10420 10423 10426 10430 10434 10437 10439 10442 10447 10450 10452 10454 10457 10460 10463 10465 10468 10470 10474 10476 10479 10480 10483 10485 10488 10490 10492 10495 10497 10499 10500 10503 10505
10158 10162 10168 10173 10178 10183 10188 10193 10198 10204 10210 10215 10220 10225 10231 10237 10242 10247 10252 10257 10262 10267 10273 10278 10284 10288 10290 10294 10297 10301 10304 10307 10311 10315 10320 10325 10329 10334 10338 10342 10347 10352 10357 10362 10367 10371 10376 10381 10386 10392 10397 10402 10407 10410 10413 10417 10422 10426 10429 10431 10434 10438 10441 10443 10445 10449 10452 10455 10458 10460 10463 10466 10469 10471 10473 10476 10479 10481 10483 10485 10488 10490 10492 10495 10497 10499
10144 10149 10155 10160 10165 10170 10175 10180 10185 10191 10196 10202 10207 10213 10219 10225 10230 10236 10242 10247 10252 10258 10263 10269 10273 10278 10282 10285 10289 10292 10295 10299 10302 10306 10310 10315 10319 10324 10329 10334 10338 10343 10347 10352 10357 10362 10367 10372 10377 10382 10387 10392 10396 10400 10404 10409 10413 10417 10420 10423 10426 10429 10432 10435 10437 10440 10445 10448 10450 10452 10455 10459 10462 10464 10467 10470 10472 10474 10475 10479 10481 10484 10485 10488 10490 10492
10131 10137 10142 10146 10151 10156 10161 10166 10172 10178 10183 10188 10194 10200 10207 10213 10218 10225 10231 10237 10242 10248 10254 10258 10263 10268 10273 10276 10279 10282 10286 10290 10293 10297 10301 10305 10309 10315 10320 10324 10329 10334 10339 10344 10349 10353 10359 10364 10368 10372 10377 10382 10387 10391 10395 10399 10403 10407 10411 10414 10417 10420 10423 10426 10429 10433 10437 10440 10442 10445 10448 10452 10454 10457 10460 10464 10465 10467 10469 10472 10474 10476 10479 10481 10484 10485